Location: ?????
(38.2505°N, 23.6954°E)
Time: 00:21:48
(UTC+00:00)

Daily predictions for brighter satellites

Satellite Brightness Start Highest point End
(mag) Time Altitude Azimuth Time Altitude Azimuth Time Altitude Azimuth
SL-16 R/B 4.3 00:05:46 10° ESE 00:10:56 28° ENE 00:16:06 10° N
Cosmos 1844 Rocket 2.5 00:09:59 60° SSW 00:11:04 88° WNW 00:16:41 10° NNE
Cosmos 1867 3.9 00:14:33 44° W 00:15:49 55° NW 00:21:13 10° NNE
CZ-2C R/B 3.5 00:10:48 10° NNE 00:15:55 51° E 00:17:24 38° SSE
Cosmos 1536 Rocket 3.8 00:17:50 54° W 00:17:51 54° W 00:22:12 10° N
MOZ.5/SAFIR/RUBIN 5/SL-8 3.7 00:20:45 61° WSW 00:20:55 62° WSW 00:25:31 10° NNW
Cosmos 1727 Rocket 3.9 00:15:53 10° N 00:22:15 88° W 00:24:57 38° S
SL-08 R/B 4.4 00:27:55 40° S 00:30:24 87° W 00:36:41 10° N
H-2A R/B 3.4 00:29:52 10° N 00:33:49 63° WNW 00:34:02 61° W
CZ-2D R/B 2.0 00:28:44 10° NNE 00:34:04 89° W 00:35:45 45° SSW
CZ-2C R/B 2.5 00:34:15 35° SSE 00:36:33 89° WSW 00:41:59 10° NNW
ADEOS II 2.3 00:33:03 10° NNE 00:38:17 66° ESE 00:40:28 35° S
ALOS 3.5 00:34:50 10° NNE 00:39:04 35° E 00:41:24 22° SSE
Cosmos 1437 Rocket 3.7 00:41:31 32° WNW 00:41:31 32° WNW 00:44:45 10° NNW
Cosmos 1607 4.1 00:36:52 10° NNW 00:43:17 77° ENE 00:49:31 10° SE
Lacrosse 5 4.3 00:42:12 10° SE 00:43:30 11° ESE 00:44:48 10° E
ASTEX 1 3.7 00:41:59 25° SSE 00:44:43 63° E 00:49:31 10° N
ATLAS 5 CENTAUR R/B 1.9 00:46:06 33° ESE 00:46:15 33° ESE 00:49:20 10° NE
AQUA 4.0 00:44:41 10° NNE 00:49:23 66° ESE 00:51:26 33° S
FENGYUN 3A 3.6 00:44:30 10° NNE 00:49:55 83° ESE 00:52:26 33° S
Cosmos 1603 3.8 00:45:01 10° NNW 00:50:37 56° WSW 00:53:01 33° S
SEDSat Delta rocket 4.0 00:55:45 26° SSE 00:55:45 26° SSE 00:58:08 10° ESE
Timation 2 Rocket 4.0 00:52:23 32° SSW 00:55:42 86° WNW 01:02:08 10° NNE
Cosmos 1943 4.0 00:51:09 10° NW 00:55:56 30° WSW 00:56:23 29° WSW
Cosmos 2298 Rocket 4.4 00:55:14 27° S 00:58:02 60° ESE 01:03:17 10° NNE
Cosmos 1812 2.8 00:55:31 10° N 00:59:03 63° E 01:00:35 31° SSE
Resurs 1-4 Rocket 2.6 00:56:13 10° N 01:01:15 46° WNW 01:03:21 31° WSW
Cosmos 2058 2.8 01:04:15 36° S 01:05:52 85° E 01:09:57 10° N
Cosmos 1892 Rocket 3.7 01:06:24 37° SW 01:07:50 56° W 01:12:13 10° N
Cosmos 724 4.2 01:02:44 10° NNW 01:08:35 89° SW 01:14:27 10° SSE
NOSS 2-2 (C) 2.7 01:09:56 51° SSW 01:10:40 88° ESE 01:13:47 10° NNE
Cosmos 2058 Rocket 3.1 01:11:13 10° N 01:15:39 81° E 01:19:08 16° S
Cosmos 1605 Rocket 4.1 01:10:50 17° S 01:15:43 78° E 01:21:50 10° N
SAR-Lupe-4 3.7 01:13:31 10° NNE 01:17:04 66° ESE 01:18:49 27° S
NOSS 2-3 (D) 3.5 01:16:58 30° S 01:18:30 55° ESE 01:22:13 10° NE
Envisat 3.8 01:17:02 10° NNE 01:21:57 49° E 01:26:42 11° S
NOSS 2-2 (D) 2.9 01:21:33 34° SSW 01:22:52 70° ESE 01:26:00 10° NE
Cosmos 1048 Rocket 4.4 01:20:28 10° NNW 01:25:22 41° WSW 01:28:31 20° SSW
Cosmos 1544 2.3 01:27:16 50° WSW 01:27:35 55° W 01:30:09 10° N
Cosmos 1833 Rocket 4.3 01:22:30 10° N 01:27:42 37° ENE 01:32:52 10° SE
Iridium 4 Rocket 3.3 01:24:57 10° N 01:29:37 85° W 01:34:21 12° S
Cosmos 1934 Rocket 4.4 01:27:03 22° SW 01:30:55 47° WNW 01:37:03 10° N
Cosmos 921 Rocket 4.3 01:28:28 10° NW 01:31:29 20° W 01:31:45 19° WSW
Cosmos 1626 Rocket 3.6 01:28:24 17° S 01:31:46 81° E 01:36:10 10° N
Cosmos 1125 Rocket 4.4 01:30:37 20° WSW 01:33:28 34° WNW 01:38:17 10° N
IDEFIX/ARIANE 42P 4.4 01:31:55 10° NNW 01:35:10 17° WNW 01:37:48 12° W
USA 276 3.1 01:35:23 24° S 01:36:29 32° SE 01:39:09 10° ENE
Meteor 1-28 Rocket 3.6 01:36:37 25° SW 01:38:03 37° W 01:41:22 10° NNW
METEOR-M 4.3 01:34:00 10° NNE 01:39:21 71° ESE 01:44:39 10° S
Cosmos 2123 Rocket 4.4 01:34:38 10° NNW 01:40:28 44° W 01:45:26 14° SSW
Cosmos-2242 3.4 01:37:56 10° N 01:42:12 64° E 01:46:26 10° SSE
CZ-4 R/B 4.2 01:37:57 10° NNE 01:42:53 68° ESE 01:47:51 10° S
Cosmos 1943 Rocket 4.1 01:38:47 10° SSE 01:43:18 25° ESE 01:47:51 10° NE
USA 267 3.3 01:38:53 10° NE 01:45:27 87° NW 01:51:00 15° SW
NOSS 2-3 (E) 3.3 01:43:42 22° SW 01:45:53 58° NW 01:49:40 10° NNE
YAOGAN 6 3.5 01:46:03 10° NNE 01:49:04 38° E 01:52:01 10° S
IRAS Rocket 4.4 01:46:45 10° N 01:52:08 59° WNW 01:56:56 13° SSW
NOSS 2-3 (C) 3.6 01:49:58 19° WSW 01:52:18 49° NW 01:56:02 10° NNE
UNK 3.8 01:49:22 10° S 01:53:53 58° W 01:58:24 10° NNW
SL-16 R/B 2.9 01:48:17 10° S 01:54:12 45° W 02:00:10 10° NNW
Cosmos 1782 2.6 01:51:34 10° N 01:55:25 89° WSW 01:59:13 10° S
Cosmos 1378 3.7 01:54:47 10° N 01:57:58 49° E 02:01:08 10° SSE
NOAA 11 4.2 01:52:57 10° NNE 01:58:27 85° WNW 02:03:53 10° SSW
Genesis I 3.0 01:56:03 10° NW 01:59:36 58° WSW 02:03:09 10° SSE
Cosmos 220 Rocket 3.9 01:59:24 10° NNW 02:03:29 61° WSW 02:07:31 10° S
Meteor 2-3 Rocket 3.8 01:59:28 10° SSW 02:05:14 72° W 02:11:02 10° N
Cosmos 2173 Rocket 4.3 02:04:28 10° S 02:10:41 74° E 02:16:50 10° N
Cosmos 1459 Rocket 4.3 02:05:27 10° S 02:11:38 71° E 02:17:57 10° NNE
CZ-2D R/B 4.2 02:11:52 10° NW 02:13:13 11° WNW 02:14:34 10° WNW
Cosmos 1238 Rocket 3.9 02:12:25 10° NW 02:14:25 16° W 02:16:02 11° SW
Cosmos 614 Rocket 3.9 02:09:30 10° NNW 02:14:36 68° WSW 02:19:37 10° S
ALOS 3.8 02:12:34 10° NNW 02:16:00 21° WNW 02:19:26 10° WSW
ADEOS II 4.0 02:14:23 10° NNW 02:17:18 15° WNW 02:20:12 10° W
Gbstr 26 Del rocket 4.2 02:12:35 11° SW 02:18:33 83° NW 02:25:58 10° NE
Cosmos 2221 4.0 02:14:37 10° N 02:18:36 40° E 02:22:32 10° SSE
Okean 1-7 Rocket 3.9 02:14:26 10° SSW 02:18:47 50° W 02:23:07 10° N
USA 305 4.4 02:21:12 10° SSE 02:22:47 14° SE 02:24:13 10° E
Cosmos 2082 Rocket 4.4 02:20:31 10° N 02:25:29 31° ENE 02:30:24 10° ESE
Lacrosse 5 1.9 02:20:40 10° SW 02:25:43 84° SE 02:30:47 10° NE
CZ-2C R/B 2.4 02:21:25 10° N 02:25:55 58° WNW 02:30:27 10° SSW
Cosmos 2278 Rocket 2.2 02:21:28 10° SSW 02:27:07 79° WNW 02:32:50 10° NNE
NOSS 3-1 (C) 3.5 02:23:21 10° SSW 02:27:55 56° ESE 02:33:10 10° NE
Cosmos 1515 4.1 02:25:04 10° NNW 02:28:17 35° W 02:31:28 10° SSW
ATLAS 5 CENTAUR R/B 3.2 02:28:21 10° WNW 02:30:11 14° NW 02:32:05 10° N
Cosmos 1953 Rocket 4.4 02:26:53 10° S 02:31:06 53° E 02:35:22 10° NNE
Thor Agena Rocket 3.6 02:26:16 10° N 02:31:33 80° WNW 02:36:47 10° SSW
DMSP B5D2-2 4.1 02:27:12 10° S 02:32:27 71° WSW 02:37:43 10° NNW
Cosmos 1812 Rocket 3.8 02:29:20 10° NNW 02:33:34 51° W 02:37:48 10° S
Cosmos 1271 Rocket 3.6 02:31:21 10° SW 02:34:30 29° WNW 02:37:42 10° NNW
Cosmos 1825 Rocket 3.6 02:32:08 10° SSW 02:36:33 75° W 02:40:59 10° N
